Location: Balaclava NSW 2575, Australia
(34.4510°S, 150.4953°E)
Time: 06:43:44
(UTC+10:00)

X-37B - Pass Details

Date: 05 August 2021
Orbit: 381 x 393 km, 45.0° (Epoch: 29 August)

Event Time Altitude Azimuth Distance (km) Brightness Sun altitude
Rises 18:21:15 0° 231° (SW) 2,315 5.1 -12.9°
Reaches altitude 10° 18:23:37 10° 216° (SW) 1,452 3.8 -13.4°
Maximum altitude 18:26:21 24° 160° (SSE) 877 2.1 -13.9°
Enters shadow 18:27:02 22° 139° (SE) 921 2.0 -14.1°
